Location: Rosenheim
(47.8408°N, 12.2113°E)
Time: 08:49:49
(UTC+02:00)

ISS - Visible Passes

Search period start: 28 May 2017 00:00
Search period end: 07 June 2017 00:00
Orbit: 402 x 408 km, 51.6° (Epoch: 28 May)

Date Brightness Start Highest point End Pass type
(mag) Time Alt. Az. Time Alt. Az. Time Alt. Az.
28 May -2.5 00:06:56 10° WNW 00:10:05 40° N 00:13:14 10° ENE visible
28 May -3.7 01:43:34 10° WNW 01:46:52 74° NNE 01:47:25 56° E visible
28 May -3.8 21:37:55 10° WSW 21:41:13 85° SSE 21:44:32 10° ENE visible
28 May -2.5 23:14:45 10° WNW 23:17:56 42° N 23:21:06 10° ENE visible
29 May -3.2 00:51:31 10° WNW 00:54:47 55° NNE 00:56:01 32° ENE visible
29 May -1.4 02:28:07 10° WNW 02:28:37 13° W 02:28:37 13° W visible
29 May -2.7 22:22:33 10° W 22:25:46 48° N 22:28:59 10° ENE visible
29 May -2.7 23:59:26 10° WNW 00:02:38 45° N 00:05:08 15° E visible
30 May -2.4 01:35:59 10° WNW 01:37:46 29° W 01:37:46 29° W visible
30 May -2.5 23:07:18 10° WNW 23:10:27 41° N 23:13:36 10° ENE visible
31 May -3.8 00:43:54 10° WNW 00:47:05 81° NNW 00:47:05 81° NNW visible
31 May -2.5 22:15:06 10° WNW 22:18:16 41° N 22:21:25 10° ENE visible
31 May -3.4 23:51:49 10° WNW 23:55:05 61° NNE 23:56:30 30° E visible
01 Jun -1.4 01:28:28 10° W 01:29:07 14° W 01:29:07 14° W visible
01 Jun -2.9 22:59:42 10° WNW 23:02:56 48° NNE 23:05:58 11° E visible
02 Jun -2.9 00:36:15 10° WNW 00:38:36 38° W 00:38:36 38° W visible
02 Jun -2.6 22:07:33 10° WNW 22:10:43 42° N 22:13:53 10° ENE visible
02 Jun -4.0 23:44:06 10° WNW 23:47:25 83° SSW 23:48:06 53° SE visible
03 Jun -3.6 22:51:59 10° WNW 22:55:17 68° NNE 22:57:39 17° E visible
04 Jun -1.9 00:28:44 10° W 00:30:17 20° WSW 00:30:17 20° WSW visible
04 Jun -3.1 21:59:51 10° WNW 22:03:06 52° NNE 22:06:20 10° E visible
04 Jun -3.4 23:36:25 10° WNW 23:39:35 44° SSW 23:39:51 43° SSW visible
05 Jun -3.8 22:44:13 10° WNW 22:47:31 71° SSW 22:49:26 22° SE visible
06 Jun -1.2 00:21:46 10° WSW 00:22:05 11° WSW 00:22:05 11° WSW visible
06 Jun -3.7 21:52:03 10° WNW 21:55:21 78° NNE 21:58:39 10° ESE visible
06 Jun -2.3 23:28:56 10° W 23:31:35 22° SW 23:31:42 22° SW visible
